Flag for Greece

Past Weather in Samothrace, Greece — Yesterday and Last 2 Weeks

Now
86 °F

Passing clouds.


Feels Like: 87 °F
Forecast: 83 / 71 °F
Wind: 10 mph from East

Location: Alexandroupoli Airport
Current Time: Aug 14, 2020 at 12:20:19 pm
Latest Report: Aug 14, 2020 at 11:20 am
Visibility: N/A
Pressure29.95 "Hg
Humidity: 46%
Dew Point: 63 °F
Location of SamothraceLocation

Past Weather in Samothrace — Graph

°F

Samothrace Temperature Yesterday

Maximum temperature yesterday: 93 °F (at 2:20 pm)
Minimum temperature yesterday: 68 °F (at 6:50 am)
Average temperature yesterday: 82 °F

High & Low Weather Summary for the Past Weeks

 TemperatureHumidityPressure
High100 °F (Jul 30, 4:50 pm)88% (Aug 14, 5:50 am)30.01 "Hg (Aug 14, 5:50 am)
Low64 °F (Aug 12, 6:20 am)24% (Jul 30, 4:50 pm)29.68 "Hg (Aug 8, 5:50 pm)
Average85 °F49%29.84 "Hg
* Reported Jul 30 10:20 am — Aug 14 10:50 am, Samothrace. Weather by CustomWeather, © 2020

Note: Actual official high and low records may vary slightly from our data, if they occured in-between our weather recording intervals... More about our weather records

Samothrace Weather History for the Previous 24 Hours

Scroll right to see more
 ConditionsComfort  
Time TempWeatherWind HumidityBarometerVisibility
10:50 am
Fri, Aug 14
84 °FPassing clouds.12 mph48%29.95 "HgN/A
10:20 am82 °FPassing clouds.12 mph51%29.95 "HgN/A
9:50 am81 °FPassing clouds.13 mph54%29.95 "HgN/A
9:20 am81 °FPassing clouds.12 mph58%29.95 "HgN/A
8:50 am77 °FPassing clouds.12 mph74%29.95 "HgN/A
8:20 am75 °FPassing clouds.10 mph78%29.95 "HgN/A
7:50 am75 °FPassing clouds.7 mph83%29.95 "HgN/A
7:20 am73 °FPassing clouds.7 mph83%29.95 "HgN/A
6:50 am73 °FPassing clouds.7 mph83%29.95 "HgN/A
6:20 am72 °FPassing clouds.6 mph88%29.95 "HgN/A
5:50 am72 °FPassing clouds.8 mph88%29.95 "HgN/A
4:50 am73 °FPassing clouds.9 mph83%29.95 "HgN/A
3:50 am73 °FPassing clouds.8 mph83%29.95 "HgN/A
2:50 am75 °FPassing clouds.7 mph74%29.95 "HgN/A
1:50 am77 °FPassing clouds.6 mph69%29.95 "HgN/A
12:50 am77 °FPassing clouds.8 mph69%29.95 "HgN/A
11:50 pm
Thu, Aug 13
79 °FPassing clouds.7 mph65%29.95 "HgN/A
11:20 pm79 °FPassing clouds.7 mph65%29.98 "HgN/A
10:50 pm79 °FPassing clouds.7 mph65%29.98 "HgN/A
10:20 pm81 °FPassing clouds.5 mph70%29.95 "HgN/A
9:20 pm82 °FPassing clouds.7 mph51%29.92 "HgN/A
8:50 pm84 °FPassing clouds.7 mph48%29.92 "HgN/A
8:20 pm84 °FPassing clouds.12 mph58%29.92 "HgN/A
7:50 pm86 °FPassing clouds.3 mph55%29.92 "HgN/A
7:20 pm88 °FPassing clouds.3 mph46%29.92 "HgN/A
6:50 pm88 °FPassing clouds.7 mph46%29.92 "HgN/A
6:20 pm88 °FPassing clouds.7 mph46%29.92 "HgN/A
5:50 pm88 °FPassing clouds.10 mph46%29.92 "HgN/A
5:20 pm90 °FScattered clouds.10 mph41%29.92 "HgN/A
4:50 pm90 °FScattered clouds.12 mph41%29.92 "HgN/A
4:20 pm90 °FScattered clouds.12 mph41%29.92 "HgN/A
3:20 pm93 °FScattered clouds.3 mph34%29.92 "HgN/A
2:50 pm93 °FPassing clouds.7 mph34%29.92 "HgN/A
2:20 pm93 °FPassing clouds.13 mph32%29.92 "HgN/A
1:50 pm91 °FPassing clouds.12 mph34%29.92 "HgN/A
1:20 pm91 °FPassing clouds.14 mph34%29.95 "HgN/A
12:50 pm91 °FPassing clouds.12 mph34%29.95 "HgN/A
12:20 pm90 °FPassing clouds.10 mph36%29.95 "HgN/A
Weather by CustomWeather, © 2020

See weather overview